Weather Roundup
Issued by NWS Chicago, IL

Home | Current Version | Previous Version | Graphics & Text | Print | Product List | Glossary On
Versions: 1 2 3 4 5 6 7 8 9 10 11 12 13 14 15 16 17 18 19 20 21 22 23 24 25 26 27 28 29 30 31 32 33 34 35 36 37 38 39 40 41 42 43 44 45 46 47 48 49 50
000
NZUS59 KLOT 210303
HRRLOT

CHICAGO AREA WEATHER ROUNDUP
NATIONAL WEATHER SERVICE CHICAGO/ROMEOVILLE IL
900 PM CST TUE FEB 20 2018

NOTE: "FAIR" INDICATES FEW OR NO CLOUDS BELOW 12,000 FEET WITH NO
SIGNIFICANT WEATHER AND/OR OBSTRUCTIONS TO VISIBILITY.

* THESE STATIONS ARE NOT UNDER NWS QUALITY CONTROL. THEY ALSO MAY NOT
  REPORT WEATHER SUCH AS PRECIPITATION OR FOG.

ILZ005-006-012>014-019>023-210400-
NORTHEAST ILLINOIS

CITY           SKY/WX    TMP DP  RH WIND       PRES   REMARKS
OHARE          LGT RAIN  36  32  85 NW10      30.09R
MIDWAY         LGT RAIN  37  37 100 NW9       30.11R
AURORA         LGT RAIN  33  31  92 W13       30.11R WCI  24
LANSING*       RAIN      39  38  99 NW7       30.10R
JOLIET*        DRIZZLE   36  35  96 W7        30.13R
WAUKEGAN       LGT RAIN  34  32  92 W8        30.10R WCI  27
DUPAGE AIRPORT LGT RAIN  34  32  92 NW12      30.10R WCI  25
WHEELING       LGT RAIN  36  33  89 NW9       30.12R
KANKAKEE*      RAIN      37  37  98 NW8       30.12R
MORRIS*        LGT RAIN  34  32  93 NW9       30.13R WCI  26
LEWIS AIRPORT* RAIN      35  34  95 NW10      30.11R WCI  27
NORTHERLY ISL    N/A     37  34  89 W10         N/A
$$

WIZ051-052-058>065-066-070>072-210400-
SOUTHEAST WISCONSIN

CITY           SKY/WX    TMP DP  RH WIND       PRES   REMARKS
MILWAUKEE      CLOUDY    36  31  82 NW9       30.09R
KENOSHA*       MIX PCPN  35  31  85 W10       30.09R WCI  27
RACINE*        CLOUDY    35  32  88 NW7       30.11R WCI  29
BURLINGTON     CLOUDY    32  29  86 NW13      30.09R WCI  23
WAUKESHA       CLOUDY    30  27  86 W15       30.09R WCI  19
WEST BEND      CLOUDY    30  28  93 W12G21    30.08R WCI  21
$$

INZ001>003-010>013-019-020-210400-
NORTHWEST INDIANA

CITY           SKY/WX    TMP DP  RH WIND       PRES   REMARKS
GARY*          NOT AVBL
MICHIGAN CITY* NOT AVBL
RENSSELAER*    NOT AVBL
VALPARAISO     LGT RAIN  44  41  89 N10G20    30.08R FOG
$$

LMZ740>746-210400-
SOUTHERN LAKE MICHIGAN

STATION/POSITION TIME  SKY/WX   TEMP WIND        PRES    VSBY
                                AIR  DIR/SP/G
                 (UTC)          (F)  (DEG/KT/KT) (MB)    (MI)
HARRISON CRIB    0240            38  280/ 11/ 13   N/A
BURNHAM HARBOR   0300            37  250/  6/ 14   N/A
CALUMET HARBOR   0230            38  270/  5/  9 1018.5R
BURNS HARBOR     0140            38  290/  9/ 13 1018.6
MICHIGAN CITY    0240            35  290/  3/  4   N/A
$$

ABBREVIATIONS USED IN REMARKS
   TC - TEMPERATURE IN CELSIUS
  WCI - WIND CHILL INDEX
   HX - HEAT INDEX
  VSB - VISIBILITY
$$




USA.gov is the U.S. government's official web portal to all federal, state and local government web resources and services.